Hamilton, OH

8:32 PM EDT on October 22, 2017 (GMT -0400)
Butler County Regional

Weather History for KHAO - February, 2014

Change the Weather History Date:

Sunday, February 16, 2014

  Actual Average (KLUK) Record (KLUK)
Temperature  
Mean Temperature 24 °F -  
Max Temperature 30 °F 42 °F 68 °F (2011)
Min Temperature 17 °F 25 °F 1 °F (1991)
Degree Days  
Heating Degree Days 40    
Moisture  
Dew Point 20 °F    
Average Humidity 81    
Maximum Humidity 93    
Minimum Humidity 66    
Precipitation  
Precipitation 0.04 in - - ()
Sea Level Pressure  
Sea Level Pressure 30.13 in    
Wind  
Wind Speed 3 mph (WNW)    
Max Wind Speed 18 mph    
Max Gust Speed 24 mph    
Visibility 6 miles    
Events Snow    
Averages and records for this station are not official NWS values.
T = Trace of Precipitation, MM = Missing Value Source: NWS Daily Summary

Daily Weather History Graph

Daily Weather History Graph

Search for Another Location

Airport or City:

Trip Planner

Search our weather history database for the weather conditions in past years. The results will help you decide how hot, cold, wet, or windy it might be!

Date:

Astronomy

Feb. 16, 2014 Rise Set
Actual Time 7:28 AM EST 6:16 PM EST
Civil Twilight 7:01 AM EST 6:43 PM EST
Nautical Twilight 6:29 AM EST 7:14 PM EST
Astronomical Twilight 5:58 AM EST 7:46 PM EST
Moon 8:11 PM EST (2/16) 7:58 AM EST (2/16)
Length of Visible Light 11h 42m
Length of Day
10h 47m
Full, 97% of the Moon is Illuminated
Feb 16
Full
Feb 22
Last Quarter
Mar 1
New
Mar 8
First Quarter
Mar 16
Full

Hourly Weather History & Observations

Time (EST) Temp. Windchill Dew Point Humidity Pressure Visibility Wind Dir Wind Speed Gust Speed Precip Events Conditions
12:49 AM 24.8 °F - 19.4 °F 80% 30.06 in 2.0 mi Calm Calm - 0.00 in Snow Light Snow
12:53 AM 24.1 °F - 19.0 °F 81% 30.08 in 1.5 mi Calm Calm - 0.00 in Snow Light Snow
1:49 AM 23.0 °F 18.4 °F 21.2 °F 93% 30.05 in 1.0 mi SE 3.5 mph - 0.02 in Snow Light Snow
1:53 AM 23.0 °F - 21.0 °F 92% 30.08 in 1.0 mi Calm Calm - 0.02 in Snow Light Snow
2:09 AM 23.0 °F - 21.0 °F 92% 30.05 in 2.0 mi Calm Calm - 0.01 in Snow Light Snow
2:16 AM 23.0 °F - 21.0 °F 92% 30.05 in 1.5 mi Calm Calm - 0.01 in Snow Light Snow
2:50 AM 23.0 °F - 21.2 °F 93% 30.03 in 2.0 mi Calm Calm - 0.02 in Snow Light Snow
2:53 AM 23.0 °F - 21.0 °F 92% 30.06 in 2.5 mi Calm Calm - 0.02 in Snow Light Snow
3:00 AM 23.0 °F - 21.0 °F 92% 30.03 in 4.0 mi Calm Calm - 0.00 in Snow Light Snow
3:53 AM 23.0 °F 18.4 °F 21.0 °F 92% 30.02 in 7.0 mi SSE 3.5 mph - 0.00 in   Overcast
4:53 AM 24.1 °F - 21.0 °F 88% 30.01 in 7.0 mi Calm Calm - 0.00 in   Overcast
5:53 AM 24.1 °F - 21.9 °F 91% 30.01 in 6.0 mi Calm Calm - N/A   Overcast
6:20 AM 24.1 °F - 21.9 °F 91% 29.99 in 7.0 mi Calm Calm - N/A   Overcast
6:41 AM 25.0 °F - 21.9 °F 88% 29.98 in 7.0 mi Calm Calm - N/A   Overcast
6:53 AM 25.0 °F 20.7 °F 21.9 °F 88% 30.02 in 7.0 mi SSW 3.5 mph - N/A   Overcast
7:53 AM 26.1 °F - 21.9 °F 84% 30.02 in 5.0 mi Calm Calm - N/A   Overcast
8:09 AM 26.1 °F - 21.9 °F 84% 30.00 in 5.0 mi Calm Calm - N/A   Overcast
8:53 AM 27.0 °F 20.5 °F 23.0 °F 85% 30.05 in 6.0 mi WSW 5.8 mph - N/A   Overcast
9:53 AM 28.0 °F 20.8 °F 23.0 °F 81% 30.06 in 6.0 mi West 6.9 mph - N/A   Haze
10:43 AM 30.0 °F 21.7 °F 23.0 °F 75% 30.05 in 7.0 mi West 9.2 mph - N/A   Overcast
10:53 AM 30.0 °F 22.4 °F 23.0 °F 75% 30.08 in 7.0 mi West 8.1 mph - N/A   Overcast
11:04 AM 30.0 °F 22.4 °F 21.9 °F 72% 30.06 in 7.0 mi WNW 8.1 mph 18.4 mph N/A   Overcast
11:53 AM 30.0 °F 20.0 °F 21.9 °F 72% 30.11 in 7.0 mi WNW 12.7 mph 20.7 mph N/A   Overcast
12:01 PM 30.0 °F 21.1 °F 21.9 °F 72% 30.09 in 7.0 mi West 10.4 mph - N/A   Overcast
12:53 PM 30.0 °F 20.5 °F 21.9 °F 72% 30.12 in 6.0 mi WNW 11.5 mph - N/A   Haze
1:53 PM 28.9 °F 16.5 °F 21.0 °F 72% 30.14 in 8.0 mi WNW 18.4 mph 24.2 mph N/A   Overcast
2:53 PM 28.0 °F 15.3 °F 19.0 °F 69% 30.17 in 10.0 mi NW 18.4 mph - N/A   Overcast
3:53 PM 28.0 °F 17.5 °F 18.0 °F 66% 30.19 in 10.0 mi NW 12.7 mph 16.1 mph N/A   Overcast
4:53 PM 26.1 °F 15.0 °F 18.0 °F 71% 30.23 in 7.0 mi WNW 12.7 mph - N/A   Overcast
5:53 PM 26.1 °F 16.2 °F 17.1 °F 69% 30.26 in 7.0 mi NW 10.4 mph - N/A   Overcast
6:53 PM 25.0 °F 18.1 °F 18.0 °F 75% 30.31 in 8.0 mi North 5.8 mph - N/A   Overcast
7:53 PM 25.0 °F 20.7 °F 17.1 °F 72% 30.34 in 8.0 mi North 3.5 mph - N/A   Overcast
8:53 PM 24.1 °F - 17.1 °F 75% 30.35 in 9.0 mi Calm Calm - N/A   Overcast
9:53 PM 23.0 °F - 17.1 °F 78% 30.35 in 8.0 mi Calm Calm - N/A   Overcast
10:53 PM 21.0 °F - 15.1 °F 78% 30.34 in 8.0 mi Calm Calm - N/A   Overcast
11:32 PM 21.9 °F 15.7 °F 15.1 °F 75% 30.31 in 8.0 mi East 4.6 mph - N/A   Mostly Cloudy
11:42 PM 19.0 °F 13.9 °F 14.0 °F 81% 30.31 in 8.0 mi East 3.5 mph - N/A   Scattered Clouds
11:53 PM 17.1 °F - 12.0 °F 81% 30.34 in 7.0 mi Calm Calm - N/A   Clear